GW4159 Weather Reports


Display with metric or nautical units.
time (UTC)temp
F
wind
direction
speed
MPH
gust
MPH
rain 1hr
in
rain 24hr
in
rain mn
in
humidity
%
barometer
mb
20260506151538 64 240 6.0 14.0 0.00 0.16 0.16 80 1009.1
20260506150041 64 289 9.0 16.0 0.00 0.16 0.16 78 1008.8
20260506144535 67 260 13.0 23.0 0.00 0.16 0.16 69 1008.5
20260506143036 67 174 8.0 10.0 0.00 0.16 0.16 73 1007.9
20260506141533 67 115 8.0 15.0 0.00 0.16 0.16 77 1008.3
20260506140026 67 110 9.0 14.0 0.00 0.16 0.16 71 1008.3
20260506134524 68 113 5.0 12.0 0.00 0.16 0.16 70 1008.6
20260506133020 68 160 7.0 12.0 0.00 0.16 0.16 69 1008.7
20260506131518 68 167 8.0 13.0 0.00 0.16 0.16 68 1008.8
20260506130017 67 141 10.0 17.0 0.00 0.16 0.16 69 1008.9
20260506124516 67 147 8.0 14.0 0.00 0.16 0.16 71 1009.0
20260506123015 67 133 10.0 17.0 0.00 0.16 0.16 70 1008.9
20260506121515 67 150 11.0 16.0 0.00 0.16 0.16 68 1008.9
20260506120025 68 171 10.0 18.0 0.00 0.16 0.16 66 1009.1
20260506114510 68 180 8.0 16.0 0.00 0.16 0.16 66 1009.1
20260506113006 66 118 8.0 15.0 0.00 0.16 0.16 74 1009.3
20260506111502 65 127 11.0 15.0 0.00 0.16 0.16 77 1009.6
20260506110002 65 120 11.0 16.0 0.00 0.16 0.16 78 1009.7
20260506104501 65 149 12.0 18.0 0.00 0.16 0.16 76 1009.7
20260506103059 65 137 14.0 20.0 0.00 0.16 0.16 77 1009.7
20260506101558 65 126 15.0 19.0 0.00 0.16 0.16 74 1009.8
20260506100111 65 128 13.0 19.0 0.00 0.16 0.16 74 1009.8
20260506094603 65 131 12.0 19.0 0.00 0.16 0.16 73 1009.9
20260506093026 65 122 13.0 20.0 0.01 0.16 0.16 75 1009.9
20260506091525 65 135 12.0 20.0 0.01 0.16 0.16 74 1009.9
20260506090014 64 142 12.0 17.0 0.01 0.16 0.16 75 1009.9
20260506084530 64 135 11.0 18.0 0.01 0.16 0.16 78 1009.9
20260506083014 63 141 9.0 15.0 0.00 0.17 0.15 82 1010.0
20260506081517 63 122 7.0 12.0 0.00 0.17 0.15 85 1009.9
20260506073012 61 112 8.0 10.0 0.00 0.27 0.15 87 1009.9
20260506071516 61 116 7.0 11.0 0.00 0.27 0.15 87 1010.0
20260506061514 60 118 2.0 6.0 0.02 0.27 0.15 88 1010.4
20260506044518 59 285 5.0 10.0 0.09 0.24 0.12 88 1010.4
20260506043011 60 231 8.0 16.0 0.06 0.20 0.08 88 1011.0
20260506041507 60 359 8.0 17.0 0.03 0.17 0.05 87 1010.9
20260506040003 61 72 1.0 3.0 0.01 0.14 0.02 87 1010.5
20260506034503 61 76 4.0 5.0 0.01 0.14 0.02 87 1010.2
20260506033001 60 56 4.0 5.0 0.00 0.13 0.02 88 1010.0
20260506031501 60 18 0.0 2.0 0.00 0.13 0.02 87 1010.0
20260506030059 60 278 3.0 7.0 0.00 0.13 0.02 87 1010.5
20260506024555 60 254 7.0 12.0 0.00 0.13 0.02 88 1010.9
20260506023104 60 359 4.0 8.0 0.00 0.13 0.02 87 1010.5
20260506021608 61 299 4.0 6.0 0.01 0.13 0.02 87 1010.6
20260506020048 61 359 2.0 4.0 0.02 0.13 0.02 87 1010.7
20260506014546 61 343 2.0 3.0 0.02 0.13 0.02 87 1010.8
20260506013057 61 18 0.0 3.0 0.02 0.13 0.02 86 1010.6
20260506011551 61 359 0.0 4.0 0.01 0.13 0.01 86 1011.0
20260506010042 62 262 3.0 6.0 0.00 0.12 0.00 85 1011.2
20260506004538 62 248 3.0 8.0 0.00 0.12 0.00 84 1011.2
20260506003038 62 246 6.0 8.0 0.00 0.12 0.00 85 1011.3
20260506001537 62 247 3.0 5.0 0.00 0.12 0.00 84 1011.2
20260506000035 62 256 2.0 4.0 0.00 0.12 0.00 84 1011.2
20260505234532 62 359 2.0 7.0 0.00 0.12 0.00 83 1011.3
20260505233029 62 359 4.0 11.0 0.00 0.12 0.00 81 1011.4
20260505231541 63 225 4.0 9.0 0.00 0.12 0.00 79 1011.2
20260505230026 63 201 4.0 10.0 0.00 0.12 0.00 78 1011.0
20260505224555 63 207 6.0 10.0 0.00 0.12 0.00 77 1011.3
20260505223050 64 182 6.0 13.0 0.00 0.12 0.00 75 1011.4
20260505221517 65 206 7.0 16.0 0.00 0.12 0.00 74 1011.6
20260505220019 65 201 8.0 15.0 0.00 0.12 0.00 73 1011.6
20260505214511 66 206 10.0 14.0 0.00 0.12 0.00 71 1011.5
20260505213015 65 183 8.0 13.0 0.00 0.12 0.00 71 1011.5
20260505211509 65 187 6.0 13.0 0.00 0.12 0.00 73 1011.5
20260505210002 64 215 6.0 12.0 0.00 0.12 0.00 74 1011.6
20260505204556 64 199 7.0 14.0 0.00 0.12 0.00 75 1011.4
20260505203120 64 195 7.0 14.0 0.00 0.12 0.12 75 1011.4
20260505201602 64 206 7.0 14.0 0.00 0.12 0.12 76 1011.4
20260505200057 65 192 7.0 13.0 0.00 0.12 0.12 76 1011.3
20260505194553 65 178 7.0 12.0 0.00 0.12 0.12 76 1011.3
20260505193052 65 204 6.0 13.0 0.00 0.12 0.12 75 1011.1
20260505191602 66 197 11.0 17.0 0.00 0.12 0.12 74 1010.8
20260505190051 66 195 9.0 14.0 0.00 0.12 0.12 74 1010.8
20260505184549 66 170 6.0 12.0 0.00 0.12 0.12 75 1010.7
20260505183049 67 179 7.0 13.0 0.00 0.12 0.12 76 1010.8
20260505181550 67 173 7.0 11.0 0.00 0.12 0.12 73 1010.6
20260505180051 67 201 10.0 15.0 0.00 0.12 0.12 72 1010.7
20260505174547 67 191 7.0 10.0 0.00 0.12 0.12 77 1010.6
20260505173047 67 149 8.0 14.0 0.00 0.12 0.12 77 1010.8
20260505171547 67 150 10.0 15.0 0.00 0.12 0.12 76 1010.6
20260505164543 67 154 11.0 19.0 0.00 0.12 0.12 74 1010.4
20260505163042 67 126 10.0 17.0 0.00 0.12 0.12 76 1010.4
20260505161539 67 115 11.0 16.0 0.00 0.12 0.12 76 1010.6
20260505153036 67 129 10.0 15.0 0.00 0.12 0.12 76 1010.9